メトカーフ-ブルーイントン彗星

97P/Metcalf-Brewington (2001)

English version
Home page
Total 6,336 html files since Dec. 4, 1995
Updated on June 11, 2005

---------------------------------------------------------------------

・ プロフィール

・ 軌道要素

Epoch 2001 Apr. 1.0 TT = JDT 2452000.5  
T 2001 Apr. 14.99634 TT                                 Muraoka 
q   2.6109320            (2000.0)            P               Q
n   0.09362345     Peri.  229.71415     +0.56116677     -0.82697813
a   4.8033727      Node   186.43822     +0.82170068     +0.56163874
e   0.4564378      Incl.   17.98731     +0.09949798     +0.02586695
P  10.53
From 138 observations 1906-2000, mean residual 1".14.  Nongravitational
   parameters A1 = +0.49 +/- 0.03, A2 = +0.0604 +/- 0.0003.

・ 星図

・ 光度変化

        m1 = 9.0 + 5 logΔ + 15.0 log r

---------------------------------------------------------------------

軌道要素は村岡健治氏の計算によるものです。
星図は StellaNavigator Ver.2.0 for Windows (アストロアーツ 編著 / アスキー出版局刊) で作成したものです。
光度グラフはComet for Windowsで作成したものです。

---------------------------------------------------------------------

Copyright(C) 1995-2008 Seiichi Yoshida (comet@aerith.net). All rights reserved.